Location: Pluckley
(51.1833°N, 0.7500°E)
Time: 05:52:09
(UTC+00:00)

Daily predictions for brighter satellites

Satellite Brightness Start Highest point End
(mag) Time Altitude Azimuth Time Altitude Azimuth Time Altitude Azimuth
GENESIS II 4.1 00:03:52 22° SW 00:06:16 87° NW 00:10:12 10° NE
SL-4 R/B 2.3 00:05:32 32° S 00:06:25 37° SSE 00:09:50 10° E
Nimbus 7 Rocket 4.5 00:00:49 10° NNE 00:06:54 83° WNW 00:11:12 21° SSW
Cosmos 1777 Rocket 4.1 00:01:54 10° NNW 00:07:11 69° WSW 00:10:23 24° S
MTI 4.2 00:05:26 10° N 00:08:24 50° WNW 00:09:37 30° SW
Lacrosse 5 rocket 2.4 00:08:42 10° W 00:12:07 40° NNW 00:15:32 10° NE
Cosmos 1184 Rocket 4.2 00:11:16 19° WSW 00:12:55 30° WNW 00:15:52 10° N
Elektron 1 3.9 00:15:19 10° WNW 00:18:19 49° SW 00:19:04 37° S
PSLV R/B 3.6 00:14:23 10° NNE 00:18:40 71° ESE 00:21:01 27° S
Cosmos 1626 Rocket 3.8 00:20:34 25° SSW 00:23:06 66° WNW 00:27:33 10° N
Cosmos 1634 Rocket 4.0 00:20:59 10° N 00:27:20 87° W 00:31:49 21° S
Cosmos 1703 4.4 00:25:16 19° SW 00:27:35 35° WNW 00:31:15 10° N
Cosmos 2279 Rocket 4.3 00:22:50 10° N 00:29:04 66° ENE 00:34:06 16° SSE
Cosmos 1602 Rocket 3.6 00:27:03 26° SSW 00:29:34 77° W 00:34:05 10° N
Cosmos 1441 Rocket 4.4 00:27:54 19° SW 00:30:11 35° WNW 00:33:45 10° N
OPS 6432 4.1 00:28:14 10° NW 00:31:12 82° SW 00:33:17 21° SE
FALCON 9 DEB 3.0 00:28:41 10° W 00:31:49 76° NNW 00:34:58 10° ENE
Aureole 3 3.2 00:29:01 10° NNW 00:32:30 73° W 00:34:38 27° S
FALCON 9 DEB 3.6 00:31:59 10° W 00:35:23 62° N 00:38:45 10° E
Cosmos 1892 3.4 00:33:27 23° SSE 00:35:28 45° E 00:39:12 10° NNE
Helios 1A 3.5 00:32:59 17° SE 00:36:04 56° ENE 00:40:11 10° N
Cosmos 1758 Rocket 3.6 00:34:16 26° S 00:36:47 79° E 00:41:13 10° NNE
Cosmos 990 Rocket 4.4 00:32:05 10° NNW 00:37:16 62° ENE 00:42:18 10° SE
Cosmos 1980 4.4 00:32:34 11° SW 00:37:51 49° NW 00:43:24 10° NNE
Cosmos 1898 Rocket 4.1 00:35:31 10° NNW 00:40:42 55° ENE 00:45:49 10° SE
Cosmos 1943 Rocket 2.1 00:36:10 10° NNW 00:41:40 73° WSW 00:45:49 18° SSE
Cosmos 2333 Rocket 4.5 00:38:39 10° W 00:43:01 22° NW 00:47:23 10° NNE
USA 229 DEB 4.2 00:46:21 20° S 00:50:21 41° ESE 00:56:41 10° NE
USA 229 4.3 00:46:28 20° S 00:50:28 41° ESE 00:56:47 10° NE
EO 1 Del DPAF 3.1 00:46:53 10° NNE 00:50:37 79° WNW 00:52:33 27° SSW
Resurs 1-4 Rocket 3.4 00:49:11 10° NNE 00:53:56 32° E 00:58:07 13° SSE
FALCON 9 DEB 3.3 00:50:56 10° W 00:54:01 61° N 00:57:05 10° ENE
Cosmos-2242 3.3 00:51:05 10° NNW 00:55:25 56° W 00:57:54 24° SSW
FALCON 9 DEB 3.3 00:53:24 10° W 00:56:31 64° N 00:59:38 10° ENE
Lacrosse 4 Rocket 3.9 00:56:26 10° NNW 00:59:47 23° NE 01:03:05 10° E
NOSS 3-1 (C) 3.4 00:56:48 21° SSW 01:00:29 65° SE 01:06:50 10° NE
Cosmos 1356 3.6 00:59:30 26° S 01:01:11 60° E 01:04:33 10° NNE
CZ-2D R/B 3.2 00:57:41 10° NNE 01:02:28 35° E 01:06:36 13° SSE
FALCON 9 DEB 3.4 01:00:04 10° W 01:03:08 60° N 01:06:13 10° ENE
YAOGAN 11 4.1 01:01:19 21° S 01:04:12 72° WSW 01:08:43 10° NNW
Cosmos 405 Rocket 3.2 01:03:33 21° SSE 01:05:42 49° E 01:09:16 10° NNE
SL-16 R/B 2.3 01:02:12 18° SW 01:06:28 77° WNW 01:12:11 10° NNE
ATLAS 3B R/B 4.2 01:01:14 10° W 01:07:17 35° NNW 01:13:33 10° NE
NOSS 2-3 (E) 3.8 01:06:52 23° SSW 01:09:20 58° SE 01:14:12 10° NE
NOSS 3-1 (A) 3.8 01:06:17 20° S 01:09:49 47° ESE 01:15:50 10° NE
Cosmos 1825 2.6 01:08:39 20° SSE 01:10:59 53° E 01:14:42 10° NNE
USA 215 3.9 01:04:50 10° ENE 01:11:14 59° NNW 01:17:38 10° W
ADEOS II 3.9 01:07:23 10° NE 01:11:28 22° E 01:15:33 10° SE
Cosmos 2237 Rocket 3.6 01:06:56 10° WSW 01:12:00 33° NW 01:17:06 10° NNE
SL-16 R/B 2.7 01:11:42 10° SSE 01:17:53 75° ENE 01:24:05 10° NNW
NOSS 8 (F) 4.4 01:17:04 27° SSW 01:18:29 52° SE 01:21:24 10° NE
Cosmos 468 Rocket 4.2 01:15:38 19° S 01:19:15 63° ESE 01:24:26 10° NNE
Cosmos 2369 Rocket 2.2 01:14:52 10° NNW 01:20:35 70° WSW 01:26:11 10° SSE
MOZ.5/SAFIR/RUBIN 5/SL-8 3.8 01:17:20 18° S 01:20:52 70° WSW 01:25:38 10° NNW
Meteor 2-13 Rocket 4.5 01:17:54 18° SSW 01:22:37 85° W 01:28:50 10° N
Cosmos 2098 Rocket 4.0 01:19:23 14° SSE 01:24:18 54° E 01:28:51 10° NNE
Cosmos 2221 2.6 01:20:24 10° N 01:24:44 74° ENE 01:28:29 13° SSE
Cosmos 2263 4.2 01:21:35 10° NNW 01:27:19 81° WSW 01:32:57 10° SSE
Cosmos 1656 Rocket 3.7 01:22:37 10° NNW 01:28:21 89° WSW 01:34:02 10° SSE
Aureole 3 Rocket 3.7 01:27:29 10° N 01:30:54 48° ENE 01:35:19 10° SSE
SJ 16-02 2.9 01:28:46 10° NW 01:32:04 21° W 01:33:58 16° SW
Cosmos 1932 4.4 01:27:39 10° NW 01:33:54 76° SW 01:40:04 10° SSE
Cosmos 1825 Rocket 4.4 01:32:45 17° SW 01:35:49 41° WNW 01:40:05 10° N
BREEZE-M DEB (TANK) 2.2 01:35:17 24° SW 01:36:20 52° SSE 01:40:03 10° E
ADEOS Rocket 3.8 01:31:10 10° SSE 01:38:23 63° ENE 01:44:56 10° N
Cosmos 1763 Rocket 3.4 01:35:27 18° SSW 01:39:17 87° ESE 01:44:28 10° NNE
Cosmos 1408 3.3 01:37:38 19° SW 01:39:55 41° WNW 01:43:27 10° N
BREEZE-M DEB (TANK) 4.2 01:37:25 10° W 01:42:43 73° SSW 02:03:29 10° ESE
NOSS 8 (H) 4.4 01:42:36 21° SSW 01:44:24 54° SE 01:47:19 10° NE
CZ-4 R/B 4.2 01:40:22 10° N 01:44:53 52° WNW 01:48:31 16° SW
X-37B 1.8 01:44:24 21° SSW 01:45:15 24° S 01:47:53 10° ESE
SL-4 R/B 1.6 01:42:01 10° W 01:45:48 90° S 01:49:20 10° E
Cosmos 1092 Rocket 4.4 01:40:20 10° S 01:46:20 59° E 01:52:22 10° NNE
ATLAS 5 CENTAUR R/B 3.6 01:44:07 10° SSE 01:46:31 15° ESE 01:49:04 10° ENE
Cosmos 1606 2.8 01:43:30 10° N 01:47:23 80° E 01:51:06 11° SSE
Cosmos 1437 Rocket 3.0 01:44:55 10° NNW 01:48:45 51° W 01:51:34 16° S
NOSS 2-3 (D) 3.7 01:46:34 15° SW 01:50:06 79° NW 01:55:14 10° NE
Lacrosse 5 rocket 2.9 01:48:30 10° WNW 01:51:47 32° N 01:55:06 10° ENE
Cosmos 2058 3.0 01:52:19 17° SSW 01:55:25 66° WNW 01:59:32 10° N
Cosmos 1242 Rocket 2.5 01:52:12 10° NNW 01:55:46 75° W 01:59:04 12° S
Cosmos 1953 Rocket 4.5 01:55:30 14° SW 01:58:46 36° WNW 02:02:52 10° N
Meteor 1-28 Rocket 3.9 02:00:35 10° SSE 02:04:16 54° ENE 02:08:01 10° N
IRS-1D 4.4 02:00:19 10° NNE 02:05:19 45° E 02:10:10 10° S
USA 290 3.9 02:04:03 10° SSE 02:06:49 26° ESE 02:09:35 10° NE
NOSS 2-3 (C) 4.1 02:03:00 11° WSW 02:07:08 60° NW 02:12:20 10° NE
FALCON 9 DEB 3.4 02:04:36 10° WNW 02:07:43 62° N 02:10:49 10° E
CREW DRAGON DEMO-1 DEB 2.9 02:07:57 19° SW 02:09:21 38° SSE 02:11:41 10° E
Exosat Rocket 4.1 02:03:34 12° SW 02:09:34 65° WNW 02:14:45 10° NNE
FALCON 9 DEB 3.0 02:08:57 10° WNW 02:12:21 71° SSW 02:15:44 10° ESE
Helios 1B rocket 2.5 02:09:29 10° N 02:13:35 73° WNW 02:17:16 12° SSW
Cosmos 1842 Rocket 4.3 02:11:23 10° NNW 02:15:24 37° W 02:19:03 12° SSW
Landsat 4 4.0 02:13:34 10° NNE 02:17:22 62° ESE 02:21:06 10° S
Cosmos 1437 2.4 02:15:21 10° NNW 02:18:08 60° W 02:20:51 10° S
SL-19 R/B 4.2 02:15:54 10° NNE 02:21:09 88° WNW 02:26:32 10° SSW
Cosmos 1943 3.3 02:17:49 12° SW 02:23:06 75° WNW 02:28:48 10° NNE
Cosmos 1633 2.5 02:20:56 12° SSW 02:24:12 76° WNW 02:27:44 10° N
Cosmos 1943 Rocket 4.0 02:22:02 10° WNW 02:24:25 13° W 02:26:48 10° WSW
Cosmos 841 Rocket 3.5 02:19:42 12° SSW 02:24:34 82° WNW 02:29:46 10° NNE
Cosmos 1937 Rocket 4.4 02:22:47 10° NW 02:27:30 32° WSW 02:32:11 10° SSW
NPP 3.9 02:22:17 10° N 02:27:38 63° WNW 02:32:57 10° SSW
ASTEX 1 4.3 02:23:04 10° SSE 02:27:50 50° ENE 02:32:37 10° N
Cosmos 540 Rocket 3.6 02:23:06 11° SW 02:27:57 68° WNW 02:33:04 10° NNE
Cosmos 1603 3.9 02:23:05 11° SW 02:28:35 68° WNW 02:34:14 10° NNE
USA 308 4.4 02:25:43 10° SSW 02:29:11 24° SE 02:32:39 10° E
FALCON 9 DEB 3.0 02:26:41 10° WNW 02:29:47 78° NNE 02:32:52 10° ESE
Cosmos 2298 Rocket 4.2 02:25:34 10° NNW 02:30:56 82° ENE 02:36:17 10° SSE
NOSS 5 (C) 4.3 02:28:32 10° NW 02:31:34 88° NE 02:35:06 10° SE
FALCON 9 DEB 3.1 02:29:16 10° WNW 02:32:24 72° NNE 02:35:31 10° E
Resurs 1-4 Rocket 2.7 02:28:51 10° N 02:33:55 46° WNW 02:38:58 10° SW
Cosmos 1782 3.5 02:30:47 10° N 02:34:45 58° ENE 02:38:42 10° SSE
NOSS 2-2 (E) 3.6 02:34:12 10° SSW 02:37:32 51° SE 02:41:19 10° NE
Cosmos 921 Rocket 3.0 02:33:58 10° SSW 02:38:09 68° WNW 02:42:21 10° NNE
Lacrosse 4 Rocket 1.3 02:34:45 10° NW 02:38:51 64° WSW 02:42:51 10° SSE
FALCON 9 DEB 2.9 02:35:49 10° WNW 02:38:56 82° NNE 02:42:02 10° ESE
Cosmos 1553 Rocket 4.1 02:32:34 10° N 02:38:58 88° E 02:45:13 10° S
CZ-4C R/B 3.0 02:37:17 10° SSE 02:40:45 85° ENE 02:44:14 10° NNW
USA 229 DEB 4.1 02:34:38 10° WSW 02:41:05 61° NW 02:48:03 10° NE
USA 229 4.1 02:34:44 10° WSW 02:41:12 61° NW 02:48:10 10° NE
CZ-2D R/B 2.9 02:37:44 10° N 02:42:35 40° WNW 02:47:26 10° SW
S3M 4.4 02:37:06 10° N 02:43:14 68° ENE 02:49:23 10° SSE
IRIDIUM 104 4.4 02:37:59 10° N 02:43:15 90° W 02:48:29 10° S
Cosmos 2150 Rocket 4.0 02:38:40 10° NNW 02:43:53 86° WSW 02:49:07 10° SSE
Cosmos 1825 4.3 02:44:26 10° WSW 02:46:49 16° WNW 02:49:11 10° NNW
Cosmos 1814 Rocket 4.1 02:43:00 10° SSW 02:48:13 77° WNW 02:53:25 10° NNE
USA 305 3.9 02:44:45 10° SSW 02:48:37 34° SE 02:52:29 10° ENE
Cosmos 1570 Rocket 4.1 02:44:24 10° SSW 02:49:38 75° WNW 02:54:54 10° NNE
NOSS 2-2 (C) 3.5 02:47:07 10° SSW 02:50:27 53° SE 02:54:11 10° NE
Cosmos 1933 3.5 02:47:28 10° NNW 02:51:29 55° W 02:55:29 10° S
SL-16 R/B 4.1 02:47:15 10° W 02:51:32 21° NW 02:55:51 10° NNE
ADEOS II 2.3 02:46:24 10° N 02:51:37 64° WNW 02:56:49 10° SSW
Cosmos 1812 4.0 02:48:13 10° N 02:51:54 43° ENE 02:55:34 10° SSE
IRIDIUM 114 4.4 02:47:10 10° N 02:52:24 77° W 02:57:37 10° S
USA 215 4.1 02:47:28 10° E 02:53:49 57° N 03:00:11 10° WNW
Cosmos 1076 Rocket 4.4 02:51:52 10° SW 02:55:45 35° WNW 02:59:40 10° N
Cosmos 2026 Rocket 4.3 02:49:57 10° SSW 02:56:06 60° WNW 03:02:25 10° N
